Terminal Aerodrome Forecast
Issued by NWS Portland, OR

Home | Current Version | Previous Version | Text Only | Print | Product List | Glossary On
Versions: 1 2 3 4 5 6 7 8 9 10 11 12 13 14 15 16 17 18 19 20 21 22 23 24 25 26 27 28 29 30 31 32 33 34 35 36 37 38
000
FTUS46 KPQR 231256 AAB
TAFEUG
TAF AMD
KEUG 231256Z 2313/2412 22003KT 1/2SM FG BKN002 BKN100
      TEMPO 2314/2316 4SM BR SCT001 BKN100
     FM231650 17004KT 6SM BR SCT004 SCT060 BKN100
     FM231700 19008KT P6SM SCT050 BKN080
     FM240300 15006KT P6SM -RA BKN045 OVC070
     FM240700 17009KT 6SM RADZ BR BKN025 OVC040=

USA.gov is the U.S. government's official web portal to all federal, state and local government web resources and services.